Powrót do katalogu

UNAMSAT

AktywnyNaukaPO
NORAD 24305·PAYLOAD·🇲🇽 Mexico

Wystrzelony Sep 5, 1996 z Plesetsk Cosmodrome

Loading…

Następne Przeloty (najbliższe 24 godziny)

TLE

ŚwieżeSource: Space-Track

Epoka: Sep 14, 2026, 06:50 UTC

1 24305U 96052B   26257.28501859  .00000049  00000-0  35829-4 0  9990
2 24305  82.9408  14.2388 0030140   6.4367 353.7170 13.74091607504853

Śledź UNAMSAT w czasie rzeczywistym z AllMySat

Download on the App Store